Starlink 11133

operational
NORAD ID: 59954 Int'l Des: 2024-107 Owner: SPXS Country: US Constellation: starlink
LEOCIRCULAR

Über Starlink 11133

Beschreibung wird geladen...

Live-Position

3D-Globus wird geladen...

Nächste Überflüge

Höhenverlauf

Altitude vs Time

uPlot chart will show altitude changes over time

Zweizeiliger Elementsatz

1 59954U 24107K 25307.97936816 -.00034422 00000-0 -27869-3 0 9994
2 59954 53.1567 150.8296 0000671 223.1969 136.8996 15.69860567 82407
Epoch: 3. Nov. 2025 • Age: 14 hours

Aktueller Status

Höhe 361.7 km
Geschwindigkeit 7.69 km/s
Subsatellitenpunkt -6.50°S, 99.22°W
Startdatum 5. Juni 2024
Alter 1.4 years
Typ internet

Technische Details

Klassifizierung Payload
Masse 960.00 kg
Trockenmasse 910.00 kg
Gesamtmasse 960.00 kg
Länge 0.30 m
Durchmesser 4.10 m
Spannweite 29.00 m
Form Box + pan
Hersteller SPXS
Bus-Typ Starlink V2MD
Phasenstatus In Orbit
Besitzer/Staat SPXS/US

Große Konstellationen

Loading constellations...